This is the latest recevied weather packets stored in our database for station/object K2YYD-2. If no packets are shown the sender has not sent any weather packets the latest 10 day(s).
| Time | Temp. | Humidity | Pressure | Rain* | Wind** | Luminosity | Snow |
|---|---|---|---|---|---|---|---|
| 1778191059 | 17.78° C | 34% | 1004.1 hPa | 0 mm | - | 333 W/m² | - |
| 1778190939 | 17.78° C | 34% | 1003.9 hPa | 0 mm | - | 341 W/m² | - |
| 1778190819 | 17.78° C | 34% | 1004 hPa | 0 mm | - | 309 W/m² | - |
| 1778190698 | 17.78° C | 34% | 1004 hPa | 0 mm | - | 340 W/m² | - |
| 1778190578 | 18.33° C | 33% | 1004 hPa | 0 mm | - | 367 W/m² | - |
| 1778190459 | 18.33° C | 34% | 1004 hPa | 0 mm | - | 374 W/m² | - |
| 1778190339 | 18.33° C | 33% | 1004 hPa | 0 mm | - | 379 W/m² | - |
| 1778190216 | 17.78° C | 34% | 1004 hPa | 0 mm | - | 388 W/m² | - |
| 1778190096 | 17.78° C | 33% | 1004 hPa | 0 mm | - | 399 W/m² | - |
| 1778189973 | 17.78° C | 34% | 1004 hPa | 0 mm | - | 408 W/m² | - |
| 1778189853 | 17.78° C | 33% | 1003.9 hPa | 0 mm | - | 418 W/m² | - |
| 1778189733 | 18.33° C | 33% | 1003.9 hPa | 0 mm | - | 426 W/m² | - |
| 1778189613 | 18.33° C | 33% | 1003.9 hPa | 0 mm | - | 437 W/m² | - |
| 1778189493 | 18.33° C | 33% | 1003.8 hPa | 0 mm | - | 442 W/m² | - |
| 1778189374 | 18.33° C | 33% | 1003.9 hPa | 0 mm | - | 451 W/m² | - |
| 1778189253 | 17.78° C | 34% | 1003.9 hPa | 0 mm | - | 461 W/m² | - |
| 1778189133 | 17.78° C | 34% | 1003.9 hPa | 0 mm | - | 462 W/m² | - |
| 1778189014 | 17.78° C | 34% | 1003.9 hPa | 0 mm | - | 472 W/m² | - |
| 1778188893 | 17.78° C | 35% | 1003.7 hPa | 0 mm | - | 479 W/m² | - |
| 1778188773 | 18.33° C | 34% | 1003.8 hPa | 0 mm | - | 487 W/m² | - |
| 1778188655 | 18.33° C | 33% | 1003.7 hPa | 0 mm | - | 493 W/m² | - |
| 1778188576 | 18.33° C | 34% | 1003.7 hPa | 0 mm | - | 442 W/m² | - |
| 1778188413 | 18.33° C | 34% | 1003.7 hPa | 0 mm | - | 483 W/m² | - |
| 1778188293 | 18.33° C | 33% | 1003.7 hPa | 0 mm | - | 518 W/m² | - |
| 1778188174 | 18.33° C | 33% | 1003.7 hPa | 0 mm | - | 466 W/m² | - |
* Rain latest hour (hover to see other rain measurements)
** Current wind speed in m/s (hover to see current wind gust speed)